{"data":{"norad_id":65582,"epoch":"2026-09-20T00:34:13.402272Z","epoch_age_seconds":55475,"freshness":"FRESH","line1":"1 65582U 25203T   26263.02376623  .00000161  00000+0  13463-3 0  9993","line2":"2 65582  81.3010 283.0386 0007154 297.6468  62.3962 13.83731154 52449","mean_motion":13.83731154,"eccentricity":0.0007154,"inclination_deg":81.301,"raan_deg":283.0386,"arg_perigee_deg":297.6468,"mean_anomaly_deg":62.3962,"bstar":0.00013463,"rev_number":5244,"period_min":104.0664579848,"perigee_km":945.43951317457,"apogee_km":955.92558818769,"semimajor_km":7328.8195506811,"source":"CELESTRAK","updated_at":"2026-09-20T09:00:47.718358Z"}}